[[{"header":{"parameterUnit":"m.s-1","parameterCategory":1,"la1":30.2991,"la2":30.254,"lo1":-89.0895,"lo2":-89.0444,"dy":0.0017,"dx":0.0017,"nx":28,"ny":28,"refTime":"2024-03-12T03:00:00:Z","depth":0,"parameterNumber":2,"parameterNumberName":"U-component_of_WINDS"},"data":[0,0,0,0,0,0,0,0,0,0,0,0,0,0,0,0,0,0,0,0,0,0,0,0,0,0,0,0,0,0,0,0,0,0,0,0,0,0,0,0,0,0,0,0,0,0,0,0,0,0,0,0,0,0,0,0,0,0,-1.3958,-1.3958,0,-1.3952,-1.3952,-1.3952,-1.3912,-1.3911,-1.391,-1.391,-1.3905,-1.3906,-1.3907,0,0,0,0,0,0,0,0,0,0,0,0,0,-1.3937,-1.3938,-1.3958,-1.3958,-1.3958,-1.3952,-1.3952,-1.3952,-1.3913,-1.3911,-1.391,-1.3909,-1.3905,-1.3906,-1.3907,0,0,0,0,0,0,0,0,0,0,0,0,0,-1.394,-1.3938,-1.3958,-1.3937,-1.3936,-1.3952,-1.3952,-1.3952,-1.3913,-1.3911,-1.391,-1.3908,-1.3905,-1.3906,-1.3907,-1.3944,0,0,-1.3911,-1.3911,0,0,0,0,0,0,0,0,-1.394,-1.3941,-1.3941,-1.3939,-1.3937,-1.3932,-1.3943,-1.3949,-1.3913,-1.3922,-1.3909,-1.3908,-1.3915,-1.3916,-1.3918,-1.3943,-1.3943,-1.3911,-1.3911,-1.3912,-1.3912,0,0,0,0,0,0,0,-1.394,-1.3941,-1.3956,-1.3941,-1.3938,-1.3929,-1.3928,-1.3944,-1.3927,-1.3921,-1.3918,-1.3918,-1.3914,-1.3917,-1.3917,-1.3943,-1.3911,-1.3912,-1.3913,-1.3913,-1.4,-1.4001,0,0,0,0,0,0,-1.3943,-1.3941,-1.3956,-1.3956,-1.3935,-1.3931,-1.393,-1.3935,-1.3926,-1.3924,-1.3919,-1.3916,-1.3915,-1.3916,-1.3917,-1.396,-1.3912,-1.3913,-1.3914,-1.3998,-1.4,-1.4002,0,0,0,0,0,0,-1.3942,-1.3944,-1.3956,-1.3948,-1.3949,-1.3933,-1.3939,-1.3935,-1.3938,-1.3925,-1.3922,-1.3925,-1.3914,-1.3915,-1.3937,-1.3959,-1.3914,-1.3915,-1.3996,-1.3999,-1.4001,-1.4046,0,0,0,0,0,0,-1.3942,-1.3944,-1.3957,-1.3948,-1.3949,-1.3976,-1.394,-1.3936,-1.394,-1.3936,-1.393,-1.3927,-1.3913,-1.3936,-1.3939,-1.396,-1.3916,-1.3994,-1.3997,-1.4,-1.4042,-1.4049,-1.4055,0,0,0,0,0,-1.3941,-1.397,-1.3958,-1.396,-1.3965,-1.3978,-1.3978,-1.3961,-1.3942,-1.3955,-1.3947,-1.3927,-1.3956,-1.3938,-1.3941,-1.3963,-1.3993,-1.3997,-1.4,-1.4039,-1.4048,-1.4055,0,0,0,0,0,0,-1.3983,-1.3969,-1.3955,-1.3982,-1.3981,-1.3971,-1.3987,-1.397,-1.3975,-1.3971,-1.395,-1.3949,-1.3975,-1.3971,-1.3952,-1.3999,-1.3971,-1.3976,-1.4,-1.4008,-1.4015,-1.4015,-1.3917,0,0,0,0,0,-1.3995,-1.4006,-1.3993,-1.4018,-1.4019,-1.4003,-1.4008,-1.3995,-1.3993,-1.3993,-1.3986,-1.3986,-1.3995,-1.4001,-1.4009,-1.4041,-1.404,-1.4058,-1.4065,-1.407,-1.4074,-1.4092,-1.41,-1.4014,-1.4014,-1.4013,0,0,-1.4021,-1.4015,-1.4023,-1.4027,-1.4024,-1.4037,-1.4003,-1.4017,-1.4026,-1.3995,-1.4015,-1.4011,-1.4009,-1.4037,-1.4049,-1.4035,-1.4098,-1.4075,-1.4079,-1.408,-1.4096,-1.4105,-1.4112,-1.4016,-1.4016,-1.4015,0,0,-1.4074,-1.407,-1.4091,-1.4089,-1.4086,-1.4076,-1.4081,-1.4073,-1.4068,-1.4089,-1.4066,-1.4077,-1.4092,-1.4092,-1.4095,-1.4149,-1.4131,-1.4152,-1.4186,-1.4204,-1.421,-1.4216,-1.4236,-1.4243,-1.4156,-1.4156,-1.4156,0,-1.4106,-1.4123,-1.4104,-1.4119,-1.4122,-1.4094,-1.4116,-1.4115,-1.4115,-1.4118,-1.4102,-1.4122,-1.4119,-1.4147,-1.416,-1.4163,-1.4168,-1.4152,-1.4211,-1.4217,-1.4222,-1.4241,-1.4248,-1.4159,-1.4158,-1.4158,-1.4158,0,-1.4163,-1.4175,-1.4193,-1.4193,-1.4198,-1.4216,-1.42,-1.4208,-1.4195,-1.4186,-1.4208,-1.4203,-1.421,-1.4215,-1.4203,-1.4242,-1.4233,-1.4215,-1.4186,-1.4233,-1.425,-1.4257,-1.4162,-1.4161,-1.4161,-1.416,0,0,-1.4242,-1.4232,-1.4238,-1.4238,-1.4233,-1.4243,-1.426,-1.4266,-1.4273,-1.4275,-1.4289,-1.4304,-1.4287,-1.4289,-1.4277,-1.4292,-1.4336,-1.4272,-1.4271,-1.4284,-1.4379,-1.4393,-1.4402,-1.4324,-1.4325,-1.4326,-1.438,0,-1.4293,-1.4322,-1.4306,-1.4337,-1.4349,-1.4323,-1.4338,-1.4337,-1.433,-1.434,-1.4332,-1.4343,-1.4319,-1.4321,-1.4335,-1.4328,-1.4355,-1.4324,-1.4338,-1.4339,-1.434,-1.4411,-1.4426,-1.4476,-1.4386,-1.4387,-1.4388,0,-1.4357,-1.436,-1.4393,-1.4386,-1.439,-1.4405,-1.4409,-1.4418,-1.4417,-1.4411,-1.4414,-1.4398,-1.4416,-1.4388,-1.4413,-1.4392,-1.4397,-1.4395,-1.4396,-1.4397,-1.4367,-1.4414,-1.4492,-1.4499,-1.4398,-1.4398,-1.4397,0,-1.4411,-1.4424,-1.4446,-1.4447,-1.4439,-1.445,-1.4448,-1.4445,-1.445,-1.4454,-1.4457,-1.4464,-1.4467,-1.4473,-1.446,-1.4441,-1.4487,-1.4458,-1.4483,-1.4483,-1.4494,-1.4493,-1.4573,-1.4497,-1.4497,-1.4496,-1.4496,0,-1.447,-1.4492,-1.447,-1.4484,-1.4507,-1.4488,-1.4512,-1.4507,-1.4505,-1.4517,-1.4495,-1.4508,-1.4489,-1.45,-1.4489,-1.4512,-1.4513,-1.451,-1.4507,-1.4512,-1.4512,-1.4515,-1.4511,-1.4498,-1.4498,-1.4498,-1.4497,0,-1.4536,-1.4522,-1.4544,-1.4535,-1.4533,-1.4551,-1.4544,-1.4556,-1.4548,-1.4564,-1.4567,-1.4554,-1.4565,-1.4552,-1.4563,-1.4556,-1.4587,-1.4578,-1.4587,-1.4585,-1.461,-1.4608,-1.4695,-1.4706,-1.4622,-1.4623,-1.4624,0,-1.4574,-1.459,-1.4583,-1.4589,-1.4588,-1.4599,-1.4604,-1.4586,-1.4592,-1.4592,-1.4605,-1.4615,-1.4621,-1.4641,-1.4633,-1.4642,-1.4634,-1.4663,-1.4635,-1.464,-1.4635,-1.4634,-1.4636,-1.4669,-1.467,-1.4671,-1.4672,0,-1.4645,-1.4637,-1.4645,-1.465,-1.4656,-1.466,-1.4662,-1.4669,-1.4651,-1.4659,-1.467,-1.4675,-1.4686,-1.4696,-1.4702,-1.47,-1.4684,-1.4681,-1.4687,-1.4693,-1.4697,-1.4696,-1.4603,-1.4679,-1.4678,-1.4678,-1.4678,-1.4677,-1.4698,-1.4711,-1.4708,-1.4718,-1.4717,-1.472,-1.4731,-1.4724,-1.4733,-1.474,-1.4729,-1.4743,-1.4743,-1.4749,-1.4749,-1.4761,-1.4748,-1.4757,-1.4759,-1.4762,-1.4766,-1.4695,-1.4762,-1.4761,-1.4761,-1.4761,-1.4761,0,-1.4768,-1.4765,-1.4773,-1.4777,-1.4784,-1.4767,-1.4769,-1.4776,-1.4789,-1.4789,-1.4796,-1.481,-1.482,-1.4813,-1.4821,-1.4832,-1.4824,-1.4835,-1.4834,-1.4834,-1.4777,-1.4771,-1.4841,-1.4841,-1.4841,-1.4841,-1.4841,-1.4841,-1.4805,-1.4826,-1.4819,-1.484,-1.4837,-1.485,-1.4853,-1.4855,-1.4855,-1.4871,-1.4879,-1.4874,-1.4872,-1.488,-1.4889,-1.4886,-1.4891,-1.4904,-1.4899,-1.4846,-1.4838,-1.483,-1.4825,-1.4905,-1.4905,-1.4955,-1.4956,-1.4956]},{"header":{"parameterUnit":"m.s-1","parameterCategory":1,"la1":30.2991,"la2":30.254,"lo1":-89.0895,"lo2":-89.0444,"dy":0.0017,"dx":0.0017,"nx":28,"ny":28,"refTime":"2024-03-12T03:00:00:Z","depth":0,"parameterNumber":3,"parameterNumberName":"V-component_of_WINDS"},"data":[0,0,0,0,0,0,0,0,0,0,0,0,0,0,0,0,0,0,0,0,0,0,0,0,0,0,0,0,0,0,0,0,0,0,0,0,0,0,0,0,0,0,0,0,0,0,0,0,0,0,0,0,0,0,0,0,0,0,3.8335,3.8336,0,3.8377,3.8377,3.8378,3.8356,3.8355,3.8354,3.8353,3.8393,3.8395,3.8397,0,0,0,0,0,0,0,0,0,0,0,0,0,3.8234,3.8236,3.8335,3.8336,3.8336,3.8377,3.8377,3.8378,3.8356,3.8355,3.8354,3.8352,3.8392,3.8395,3.8397,0,0,0,0,0,0,0,0,0,0,0,0,0,3.8277,3.8237,3.8335,3.833,3.833,3.8377,3.8377,3.8378,3.8357,3.8355,3.8353,3.8352,3.8392,3.8395,3.8398,3.845,0,0,3.8407,3.8409,0,0,0,0,0,0,0,0,3.8275,3.8281,3.8331,3.8331,3.8331,3.836,3.8356,3.8402,3.8357,3.8347,3.8353,3.8351,3.8383,3.8387,3.8398,3.8452,3.8454,3.8408,3.841,3.8411,3.8412,0,0,0,0,0,0,0,3.8272,3.8279,3.8351,3.8331,3.8331,3.8325,3.833,3.8365,3.8373,3.8347,3.8346,3.8351,3.8383,3.8395,3.8399,3.8454,3.8408,3.841,3.8412,3.8413,3.8552,3.8554,0,0,0,0,0,0,3.8269,3.8276,3.835,3.8353,3.8298,3.8328,3.8333,3.8352,3.8373,3.8375,3.8353,3.835,3.8391,3.8395,3.84,3.8462,3.8411,3.8414,3.8416,3.855,3.8552,3.8554,0,0,0,0,0,0,3.8267,3.8276,3.8348,3.8314,3.8323,3.8332,3.8353,3.8354,3.8366,3.8377,3.8378,3.8364,3.839,3.8396,3.8438,3.8463,3.8415,3.8418,3.8548,3.8551,3.8553,3.8587,0,0,0,0,0,0,3.8264,3.8275,3.8296,3.8315,3.8325,3.8386,3.8355,3.8356,3.8372,3.8369,3.8388,3.8389,3.8389,3.8433,3.8441,3.8467,3.8421,3.8546,3.8549,3.8552,3.8583,3.859,3.8596,0,0,0,0,0,3.8261,3.8304,3.8297,3.8306,3.8351,3.8388,3.8393,3.8392,3.8374,3.8394,3.8401,3.8389,3.8459,3.8438,3.8446,3.8473,3.8544,3.8548,3.8552,3.8581,3.8589,3.8596,0,0,0,0,0,0,3.8287,3.8306,3.8299,3.835,3.8367,3.8384,3.841,3.8401,3.8424,3.842,3.8417,3.8422,3.8465,3.8474,3.8449,3.8525,3.8499,3.8505,3.8518,3.8526,3.8532,3.8529,3.8423,0,0,0,0,0,3.8299,3.8328,3.8342,3.8385,3.8395,3.8401,3.8417,3.8415,3.8432,3.844,3.845,3.8467,3.8492,3.851,3.8534,3.8585,3.8588,3.8608,3.8614,3.8619,3.8624,3.865,3.8659,3.8567,3.8567,3.8567,0,0,3.8323,3.8337,3.8355,3.8391,3.8404,3.8434,3.8407,3.8439,3.8461,3.8444,3.8484,3.8492,3.8511,3.8557,3.8578,3.8565,3.865,3.8624,3.8628,3.863,3.8655,3.8664,3.8672,3.857,3.857,3.8569,0,0,3.8382,3.8396,3.8433,3.8447,3.8468,3.8472,3.848,3.8499,3.8503,3.8544,3.8532,3.8557,3.8602,3.8615,3.8628,3.8692,3.8681,3.87,3.8733,3.8758,3.8766,3.8772,3.8794,3.8802,3.8705,3.8705,3.8705,0,3.8409,3.8453,3.8453,3.8486,3.8501,3.8488,3.8525,3.8538,3.8566,3.8577,3.8562,3.8618,3.863,3.8679,3.8694,3.8705,3.8714,3.8697,3.8765,3.8771,3.8777,3.8798,3.8806,3.8707,3.8707,3.8707,3.8706,0,3.8485,3.8516,3.8543,3.8571,3.859,3.8624,3.8628,3.8646,3.8642,3.8647,3.8688,3.8702,3.8728,3.874,3.8736,3.8788,3.8779,3.8765,3.8739,3.8788,3.8807,3.8815,3.871,3.8709,3.8709,3.8708,0,0,3.8562,3.8588,3.8598,3.861,3.8632,3.8656,3.8689,3.8716,3.8732,3.8751,3.8778,3.8817,3.8803,3.8818,3.8815,3.8838,3.8886,3.8821,3.8821,3.8832,3.8943,3.8953,3.8962,3.888,3.8881,3.8882,3.8941,0,3.8621,3.8681,3.8681,3.8736,3.8763,3.8752,3.8781,3.8797,3.8802,3.8826,3.8831,3.8858,3.8839,3.8848,3.887,3.8876,3.8909,3.8872,3.8904,3.8905,3.8899,3.8972,3.8983,3.9038,3.8949,3.895,3.8951,0,3.8699,3.8722,3.8779,3.8796,3.8808,3.8834,3.8858,3.8882,3.8899,3.8901,3.8918,3.8912,3.8944,3.8918,3.8963,3.8938,3.8951,3.8956,3.8958,3.896,3.893,3.8976,3.9056,3.9063,3.8963,3.8962,3.8961,0,3.8748,3.8792,3.8832,3.8843,3.8865,3.8883,3.8893,3.8909,3.8925,3.8945,3.8955,3.898,3.8993,3.9011,3.9011,3.8992,3.9056,3.903,3.9058,3.9058,3.9071,3.907,3.9153,3.9081,3.9081,3.9081,3.9081,0,3.8814,3.8849,3.8854,3.8879,3.8918,3.8917,3.8955,3.8963,3.8977,3.9002,3.8993,3.9017,3.9016,3.904,3.904,3.9076,3.9083,3.9084,3.9084,3.9085,3.9084,3.9092,3.9088,3.9083,3.9083,3.9082,3.9082,0,3.8875,3.888,3.8922,3.8939,3.8944,3.8972,3.8986,3.9009,3.9013,3.9045,3.9052,3.9059,3.9086,3.9088,3.912,3.912,3.9164,3.9159,3.9158,3.9157,3.9184,3.9181,3.9275,3.9286,3.9208,3.9208,3.9209,0,3.8916,3.8943,3.8963,3.8979,3.899,3.9017,3.9033,3.9033,3.905,3.9072,3.9092,3.9118,3.9139,3.9183,3.919,3.9214,3.9209,3.9241,3.9213,3.9212,3.9208,3.9207,3.9209,3.9246,3.9246,3.9247,3.9248,0,3.8989,3.899,3.9014,3.9039,3.9059,3.9078,3.9096,3.911,3.9112,3.9132,3.916,3.9176,3.9208,3.9234,3.9257,3.9266,3.9257,3.9257,3.9264,3.9265,3.9262,3.9263,3.9171,3.9254,3.9254,3.9253,3.9253,3.9252,3.9041,3.9064,3.9081,3.9108,3.9122,3.9139,3.9161,3.9168,3.9192,3.9219,3.9217,3.9248,3.9263,3.9294,3.9304,3.9327,3.9317,3.9328,3.933,3.9333,3.9335,3.9259,3.9332,3.9331,3.9331,3.9331,3.9331,0,3.9112,3.9123,3.9148,3.9173,3.9194,3.9185,3.9204,3.9222,3.925,3.9266,3.9287,3.9318,3.9343,3.9352,3.9376,3.9393,3.9389,3.9399,3.9397,3.9399,3.9344,3.9335,3.9402,3.9402,3.9402,3.9402,3.9402,3.9402,3.9152,3.919,3.9193,3.9237,3.9248,3.9278,3.929,3.9305,3.9318,3.9354,3.9375,3.9381,3.9394,3.9418,3.944,3.9442,3.9451,3.9462,3.9463,3.941,3.9403,3.9396,3.9388,3.9465,3.9465,3.9516,3.9516,3.9517]}]]